jamsasäät
Date & Time Temp Press WDD WDS RH PM10 Temp Press SO2
  °C atm Deg m/s % µg/m3 °C atm µg/m3
15.10.2019 17:00 NoData NoData 134 1.2 84 NoData 2.4 1011.718 1.6
15.10.2019 16:00 NoData NoData 151 1.1 85 NoData 1.9 1011.833 1.4
15.10.2019 15:00 NoData NoData 186 1.3 85 NoData 1.1 1012.044 1.4
15.10.2019 14:00 NoData NoData 193 1.1 85 NoData 0.7 1011.905 1.3
15.10.2019 13:00 NoData NoData 166 0.9 87 NoData 0.1 1011.786 1.3
15.10.2019 12:00 NoData NoData 167 0.9 87 NoData -0.5 1011.570 1.3
15.10.2019 11:00 NoData NoData 157 0.8 87 NoData -1.1 1011.032 1.3
15.10.2019 10:00 NoData NoData 160 0.7 86 NoData -1.1 1010.292 1.4
15.10.2019 09:00 NoData NoData 216 0.6 86 NoData -0.8 1009.901 1.2
15.10.2019 08:00 NoData NoData 276 0.7 85 NoData -0.5 1009.299 1.3
15.10.2019 07:00 NoData NoData 273 0.6 85 NoData -0.1 1008.841 1.2
15.10.2019 06:00 NoData NoData 286 0.9 86 NoData 0.0 1008.570 1.4
15.10.2019 05:00 NoData NoData 305 1.2 86 NoData 0.2 1008.020 1.3
15.10.2019 04:00 NoData NoData 309 1.1 86 NoData -0.2 1007.228 1.3
15.10.2019 03:00 NoData NoData 279 0.4 82 NoData -1.9 1006.387 1.6
15.10.2019 02:00 NoData NoData 165 0.2 81 NoData -2.4 1005.485 1.5
15.10.2019 01:00 NoData NoData 143 0.4 83 NoData -1.9 1004.705 1.6
14.10.2019 24:00 NoData NoData 124 0.6 84 NoData -2.4 1004.272 1.7
14.10.2019 23:00 NoData NoData 311 0.4 81 NoData -2.2 1003.698 1.4
14.10.2019 22:00 NoData NoData 105 0.2 83 NoData -2.0 1002.836 1.3
14.10.2019 21:00 NoData NoData 307 0.4 83 NoData -1.2 1001.967 1.4
14.10.2019 20:00 NoData NoData 316 0.6 82 NoData -0.3 1001.283 1.5
14.10.2019 19:00 NoData NoData 40 0.4 77 NoData 1.2 1000.266 1.3
14.10.2019 18:00 NoData NoData 134 0.5 72 NoData 2.9 999.182 1.3
14.10.2019 17:00 NoData NoData 134 0.7 73 NoData 3.3 998.474 1.4
14.10.2019 16:00 NoData NoData 152 0.7 73 NoData 3.9 997.833 1.1
14.10.2019 15:00 NoData NoData 151 0.7 75 NoData 4.1 997.683 1.0
14.10.2019 14:00 NoData NoData 155 0.4 81 NoData 3.4 997.959 0.9
14.10.2019 13:00 NoData NoData 167 0.5 84 NoData 2.8 998.253 0.7
14.10.2019 12:00 NoData NoData 254 0.4 86 NoData 1.6 998.317 0.9
14.10.2019 11:00 NoData NoData 266 0.3 85 NoData 0.3 998.614 1.1
14.10.2019 10:00 NoData NoData 280 0.4 85 NoData 0.0 998.685 1.2
14.10.2019 09:00 NoData NoData 283 0.3 85 NoData -0.5 998.568 1.0
14.10.2019 08:00 NoData NoData 311 0.4 86 NoData -0.9 998.869 1.2
14.10.2019 07:00 NoData NoData 140 0.4 85 NoData -0.9 999.203 1.5
14.10.2019 06:00 NoData NoData 112 0.4 86 NoData -0.8 999.452 1.5
14.10.2019 05:00 NoData NoData 298 0.4 84 NoData -0.3 999.525 1.5
14.10.2019 04:00 NoData NoData 136 0.3 84 NoData 0.6 999.943 1.6
14.10.2019 03:00 NoData NoData 92 0.4 84 NoData 1.6 1000.101 1.6
14.10.2019 02:00 NoData NoData 217 0.4 79 NoData 3.0 1000.011 1.5
14.10.2019 01:00 NoData NoData 271 0.7 76 NoData 3.7 999.650 1.5
13.10.2019 24:00 NoData NoData 243 0.6 75 NoData 3.7 999.350 1.4
13.10.2019 23:00 NoData NoData 252 0.7 75 NoData 3.5 999.084 1.4
13.10.2019 22:00 NoData NoData 269 1.0 75 NoData 3.7 998.644 1.4
13.10.2019 21:00 NoData NoData 283 1.3 76 NoData 3.5 997.962 1.5
13.10.2019 20:00 NoData NoData 289 1.3 77 NoData 3.5 997.321 1.5
13.10.2019 19:00 NoData NoData 312 1.3 76 NoData 3.8 996.444 1.3
13.10.2019 18:00 NoData NoData 306 1.4 76 NoData 3.7 995.421 1.1
13.10.2019 17:00 NoData NoData 284 1.7 77 NoData 3.8 994.420 1.1
13.10.2019 16:00 NoData NoData 302 2.2 80 NoData 4.4 993.147 1.2
13.10.2019 15:00 NoData NoData 290 1.8 85 NoData 4.7 991.777 1.3
13.10.2019 14:00 NoData NoData 286 1.8 85 NoData 4.7 990.459 1.1
13.10.2019 13:00 NoData NoData 292 1.4 86 NoData 5.2 989.237 1.2
13.10.2019 12:00 NoData NoData 263 1.0 89 NoData 5.2 988.262 1.0
13.10.2019 11:00 NoData NoData 129 0.6 89 NoData 5.0 987.437 1.1
13.10.2019 10:00 NoData NoData 224 0.6 88 NoData 4.5 986.979 1.1
13.10.2019 09:00 NoData NoData 272 0.4 87 NoData 4.4 986.682 1.3
13.10.2019 08:00 NoData NoData 269 0.4 86 NoData 4.2 986.389 1.3
13.10.2019 07:00 NoData NoData 254 0.3 83 NoData 4.4 986.130 1.3
13.10.2019 06:00 NoData NoData 167 0.3 81 NoData 4.4 985.845 1.2
13.10.2019 05:00 NoData NoData 193 0.4 81 NoData 4.5 985.684 1.1
13.10.2019 04:00 NoData NoData 164 0.3 81 NoData 4.6 985.653 1.1
13.10.2019 03:00 NoData NoData 215 0.2 82 NoData 4.5 985.500 1.3
13.10.2019 02:00 NoData NoData 194 0.2 82 NoData 4.7 985.242 1.3
13.10.2019 01:00 NoData NoData 99 0.3 84 NoData 5.1 985.005 1.3
12.10.2019 24:00 NoData NoData 277 0.3 82 NoData 5.3 984.659 1.1
12.10.2019 23:00 NoData NoData 312 0.6 81 NoData 5.5 984.381 1.2
12.10.2019 22:00 NoData NoData 279 1.1 79 NoData 6.0 983.888 1.3
12.10.2019 21:00 NoData NoData 294 1.2 79 NoData 6.2 983.217 1.3
12.10.2019 20:00 NoData NoData 308 2.0 77 NoData 6.9 982.656 1.1
12.10.2019 19:00 NoData NoData 309 1.5 80 NoData 7.1 981.918 1.0
12.10.2019 18:00 NoData NoData 308 2.2 77 NoData 7.6 980.988 1.1
12.10.2019 17:00 NoData NoData 299 2.2 72 NoData 8.4 980.047 1.1
12.10.2019 16:00 NoData NoData 311 2.1 72 NoData 8.3 979.105 1.1
12.10.2019 15:00 NoData NoData 302 2.5 75 NoData 8.3 978.061 1.1
12.10.2019 14:00 NoData NoData 275 2.1 79 NoData 8.1 977.092 1.0
12.10.2019 13:00 NoData NoData 286 2.0 86 NoData 7.4 976.413 1.0
12.10.2019 12:00 NoData NoData 269 1.6 88 NoData 7.1 975.950 1.0
12.10.2019 11:00 NoData NoData 259 1.3 89 NoData 6.9 975.788 1.0
12.10.2019 10:00 NoData NoData 273 1.2 89 NoData 6.9 975.793 1.0
12.10.2019 09:00 NoData NoData 241 0.7 89 NoData 6.9 976.094 1.2
12.10.2019 08:00 NoData NoData 89 0.4 90 NoData 6.9 976.794 1.3
12.10.2019 07:00 NoData NoData 95 0.4 89 NoData 6.8 977.806 1.3
12.10.2019 06:00 NoData NoData 100 0.5 89 NoData 6.8 978.867 1.2
12.10.2019 05:00 NoData NoData 129 0.9 89 NoData 6.6 980.050 1.0
12.10.2019 04:00 NoData NoData 124 1.0 87 NoData 6.4 981.104 1.1
12.10.2019 03:00 NoData NoData 144 1.1 86 NoData 6.6 982.056 1.2
12.10.2019 02:00 NoData NoData 131 1.3 86 NoData 6.6 982.738 1.0
12.10.2019 01:00 NoData NoData 154 1.5 85 NoData 7.0 983.207 1.0
11.10.2019 24:00 NoData NoData 145 1.3 85 NoData 7.3 983.383 1.1
11.10.2019 23:00 NoData NoData 172 1.6 84 NoData 7.8 983.663 1.1
11.10.2019 22:00 NoData NoData 185 1.4 83 NoData 8.3 984.005 1.0
11.10.2019 21:00 NoData NoData 184 1.6 84 NoData 8.5 984.241 1.1
11.10.2019 20:00 NoData NoData 159 2.2 86 NoData 8.6 984.495 1.4
11.10.2019 19:00 NoData NoData 152 1.8 84 NoData 8.8 984.891 1.4
11.10.2019 18:00 NoData NoData 169 1.9 80 NoData 9.3 985.324 1.2
11.10.2019 17:00 NoData NoData 183 1.7 77 NoData 9.5 985.762 1.1
11.10.2019 16:00 NoData NoData 200 1.5 75 NoData 9.6 986.071 1.1
11.10.2019 15:00 NoData NoData 216 1.3 74 NoData 9.8 986.258 1.1
11.10.2019 14:00 NoData NoData 247 1.4 78 NoData 9.1 986.509 1.2
11.10.2019 13:00 NoData NoData 213 1.3 84 NoData 8.6 986.390 1.2
11.10.2019 12:00 NoData NoData 190 1.5 86 NoData 8.5 986.282 1.2
11.10.2019 11:00 NoData NoData 171 1.6 87 NoData 8.0 986.302 1.3
11.10.2019 10:00 NoData NoData 161 1.5 88 NoData 7.6 986.401 1.1
11.10.2019 09:00 NoData NoData 157 1.4 88 NoData 7.3 986.518 1.1
11.10.2019 08:00 NoData NoData 172 1.5 89 NoData 7.2 986.693 1.3
11.10.2019 07:00 NoData NoData 162 1.5 89 NoData 7.1 986.969 1.1
11.10.2019 06:00 NoData NoData 153 1.4 89 NoData 6.8 987.176 1.2
11.10.2019 05:00 NoData NoData 154 1.3 88 NoData 6.7 987.456 1.1
11.10.2019 04:00 NoData NoData 155 1.3 88 NoData 6.6 987.661 1.3
11.10.2019 03:00 NoData NoData 161 1.7 87 NoData 6.6 987.852 1.2
11.10.2019 02:00 NoData NoData 146 0.9 88 NoData 6.3 988.067 1.2
11.10.2019 01:00 NoData NoData 146 1.1 88 NoData 6.2 988.326 1.1
10.10.2019 24:00 NoData NoData 156 1.0 88 NoData 5.9 988.514 1.2
10.10.2019 23:00 NoData NoData 140 0.7 88 NoData 5.4 988.818 1.2
10.10.2019 22:00 NoData NoData 132 0.9 89 NoData 5.2 989.123 1.3
10.10.2019 21:00 NoData NoData 122 0.5 89 NoData 4.9 989.280 1.2
10.10.2019 20:00 NoData NoData 125 0.5 88 NoData 4.8 989.415 1.1
10.10.2019 19:00 NoData NoData 134 0.5 88 NoData 4.6 989.446 1.2
10.10.2019 18:00 NoData NoData 96 0.2 87 NoData 4.6 989.628 1.2
10.10.2019 17:00 NoData NoData 111 0.6 85 NoData 4.7 989.776 1.2
10.10.2019 16:00 NoData NoData 131 0.8 85 NoData 4.6 989.802 1.3
10.10.2019 15:00 NoData NoData 141 1.1 83 NoData 4.2 990.022 1.2
10.10.2019 14:00 NoData NoData 147 1.1 83 NoData 4.0 990.277 1.2
10.10.2019 13:00 NoData NoData 140 0.9 85 NoData 3.2 990.518 1.2
10.10.2019 12:00 NoData NoData 155 0.8 88 NoData 2.0 990.502 1.3
10.10.2019 11:00 NoData NoData 243 0.6 86 NoData 0.9 990.577 1.2
10.10.2019 10:00 NoData NoData 254 0.4 85 NoData 0.0 990.639 1.2
10.10.2019 09:00 NoData NoData 245 0.4 85 NoData -0.3 990.730 1.2
10.10.2019 08:00 NoData NoData 227 0.4 85 NoData -0.1 990.960 1.1
10.10.2019 07:00 NoData NoData 267 0.4 85 NoData -0.5 991.068 1.2
10.10.2019 06:00 NoData NoData 288 0.5 85 NoData -0.8 991.197 1.1
10.10.2019 05:00 NoData NoData 264 0.4 84 NoData -1.2 991.410 1.3
10.10.2019 04:00 NoData NoData 113 0.4 84 NoData -1.6 991.572 1.3
10.10.2019 03:00 NoData NoData 162 0.2 82 NoData -1.4 991.603 1.3
10.10.2019 02:00 NoData NoData 85 0.3 83 NoData -1.5 991.721 1.2
10.10.2019 01:00 NoData NoData 132 0.4 83 NoData -1.7 991.892 1.2
09.10.2019 24:00 NoData NoData 98 0.3 82 NoData -1.8 992.018 1.1
09.10.2019 23:00 NoData NoData 142 0.3 83 NoData -1.6 991.866 1.2
09.10.2019 22:00 NoData NoData 112 0.4 84 NoData -1.1 991.823 1.1
09.10.2019 21:00 NoData NoData 98 0.3 81 NoData 0.1 991.632 1.3
09.10.2019 20:00 NoData NoData 214 0.5 76 NoData 1.8 991.475 1.2
09.10.2019 19:00 NoData NoData 276 1.4 72 NoData 3.4 991.269 1.2
09.10.2019 18:00 NoData NoData 281 1.0 65 NoData 4.4 990.907 1.3
09.10.2019 17:00 NoData NoData 293 1.3 65 NoData 4.5 990.613 1.1
09.10.2019 16:00 NoData NoData 251 0.6 67 NoData 4.7 990.452 1.1
09.10.2019 15:00 NoData NoData 263 1.1 67 NoData 4.3 990.306 1.1
09.10.2019 14:00 NoData NoData 221 1.2 68 NoData 4.0 990.267 1.1
09.10.2019 13:00 NoData NoData 277 1.3 73 NoData 2.9 990.311 1.1
09.10.2019 12:00 NoData NoData 289 0.9 79 NoData 2.6 990.228 1.2
09.10.2019 11:00 NoData NoData 311 0.8 85 NoData 1.4 989.988 1.3
09.10.2019 10:00 NoData NoData 120 0.4 85 NoData 0.6 989.844 1.5
09.10.2019 09:00 NoData NoData 302 0.4 85 NoData 0.1 989.703 1.5
09.10.2019 08:00 NoData NoData 79 0.3 85 NoData -0.3 989.480 1.3
09.10.2019 07:00 NoData NoData 182 0.2 84 NoData -0.5 989.415 1.2
09.10.2019 06:00 NoData NoData 318 0.4 85 NoData -0.1 989.433 1.2
09.10.2019 05:00 NoData NoData 241 0.4 85 NoData 1.0 989.645 1.1
09.10.2019 04:00 NoData NoData 336 0.4 85 NoData 1.1 989.835 1.1
09.10.2019 03:00 NoData NoData 108 0.3 84 NoData 1.8 989.996 1.2
09.10.2019 02:00 NoData NoData 293 0.5 84 NoData 1.8 990.279 1.2
09.10.2019 01:00 NoData NoData 323 0.3 83 NoData 2.0 990.348 1.2
08.10.2019 24:00 NoData NoData 16 0.3 84 NoData 1.7 990.590 1.1
08.10.2019 23:00 NoData NoData 202 0.3 83 NoData 1.9 990.698 1.2
08.10.2019 22:00 NoData NoData 113 0.3 83 NoData 2.3 990.793 1.1
08.10.2019 21:00 NoData NoData 125 0.2 84 NoData 2.4 991.021 1.2
08.10.2019 20:00 NoData NoData 153 0.1 84 NoData 2.4 991.389 1.1
08.10.2019 19:00 NoData NoData 126 0.3 84 NoData 2.8 991.739 1.2
08.10.2019 18:00 NoData NoData 96 0.5 83 NoData 3.1 991.825 1.2